Waarnemingen

Advertentie
Mijn weer
UFS Deutsche Bucht, Duitsland (10007): temperatuur & dauwpunt: 13.10.2018 11:00:00 - 19.10.2018 11:00:00 (CEST)UFS Deutsche Bucht, Duitsland (10007): windsnelheid & windstoten: 13.10.2018 11:00:00 - 19.10.2018 11:00:00 (CEST)UFS Deutsche Bucht, Duitsland (10007): windrichting: 13.10.2018 11:00:00 - 19.10.2018 11:00:00 (CEST)UFS Deutsche Bucht, Duitsland (10007): luchtdruk: 13.10.2018 11:00:00 - 19.10.2018 11:00:00 (CEST)UFS Deutsche Bucht, Duitsland (10007): zicht: 13.10.2018 11:00:00 - 19.10.2018 11:00:00 (CEST)UFS Deutsche Bucht, Duitsland (10007): Zonneschijnduur: 13.10.2018 11:00:00 - 19.10.2018 11:00:00 (CEST)
Datum & Tijd tt [°C] td [°C] ff [km/u] ff [kn] fx [km/u] fx [kn] dd ppp [hPa] vv [km] sd [min]
19.10.2018 11:00:00 12,3 3,6 11 6 - - W 1027,0 10 0
19.10.2018 10:00:00 12,2 4,3 7 4 - - W 1026,9 10 0
19.10.2018 09:00:00 12,1 3,9 7 4 - - WNW 1026,7 10 0
19.10.2018 08:00:00 12,0 3,9 4 2 - - ZW 1026,6 10 0
19.10.2018 07:00:00 12,1 4,6 7 4 - - NNO 1026,5 10 0
19.10.2018 06:00:00 12,0 3,8 7 4 - - NO 1026,6 10 0
19.10.2018 05:00:00 12,0 4,2 11 6 - - ONO 1026,6 10 0
19.10.2018 04:00:00 12,1 4,8 11 6 - - ONO 1026,6 10 0
19.10.2018 03:00:00 12,0 4,3 14 8 - - NO 1026,8 10 0
19.10.2018 02:00:00 12,1 4,7 14 8 - - NNO 1027,1 10 0
19.10.2018 01:00:00 12,3 5,3 18 10 - - N 1027,3 10 0
19.10.2018 00:00:00 12,2 4,8 14 8 - - NNO 1027,4 10 0
18.10.2018 23:00:00 12,3 5,0 22 12 - - NNO 1027,5 10 0
18.10.2018 22:00:00 12,4 5,2 22 12 - - NNO 1027,4 10 0
18.10.2018 21:00:00 12,5 5,3 22 12 - - N 1026,9 10 0
18.10.2018 20:00:00 12,6 6,7 22 12 - - N 1026,8 10 0
18.10.2018 19:00:00 12,7 5,1 25 14 - - NNO 1026,5 10 24
18.10.2018 18:00:00 12,8 5,1 25 14 - - N 1026,1 0,6 60
18.10.2018 17:00:00 13,1 7,1 25 14 - - N 1025,9 1,7 54
18.10.2018 16:00:00 13,3 7,3 29 16 - - N 1026,0 10 54
18.10.2018 15:00:00 13,4 8,3 29 16 - - N 1026,0 10 24
18.10.2018 14:00:00 13,5 8,7 29 16 - - NNO 1025,7 10 48
18.10.2018 13:00:00 13,6 8,7 25 14 - - NNO 1025,8 10 42
18.10.2018 12:00:00 13,4 8,8 29 16 - - NNO 1025,6 10 54
18.10.2018 11:00:00 13,4 8,0 36 19 - - NNO 1024,9 10 6
18.10.2018 10:00:00 13,7 9,1 25 14 - - N 1024,3 10 0
18.10.2018 09:00:00 13,5 8,7 32 18 - - N 1023,7 10 0
18.10.2018 08:00:00 13,6 9,3 29 16 - - N 1023,0 10 0
18.10.2018 07:00:00 14,1 10,7 32 18 - - N 1022,4 10 0
18.10.2018 06:00:00 14,1 12,5 29 16 - - N 1021,9 10 0
18.10.2018 05:00:00 13,9 12,2 29 16 - - N 1021,8 10 0
18.10.2018 04:00:00 14,1 13,0 32 18 - - NNW 1021,5 10 0
18.10.2018 03:00:00 14,6 12,9 18 10 - - NNW 1021,4 10 0
18.10.2018 02:00:00 14,8 11,9 18 10 - - NW 1021,3 10 0
18.10.2018 01:00:00 15,0 12,2 18 10 - - NNW 1021,3 10 0
18.10.2018 00:00:00 15,0 12,7 18 10 - - NW 1020,9 10 0
17.10.2018 23:00:00 15,1 12,1 14 8 - - WNW 1020,8 10 0
17.10.2018 22:00:00 15,1 12,0 22 12 - - WNW 1020,6 10 0
17.10.2018 21:00:00 15,2 11,6 18 10 - - W 1020,2 10 0
17.10.2018 20:00:00 15,4 12,6 14 8 - - W 1019,9 10 0
17.10.2018 19:00:00 15,3 12,6 14 8 50 27 W 1019,6 10 6
17.10.2018 18:00:00 15,6 12,7 14 8 - - W 1019,2 10 60
17.10.2018 17:00:00 15,7 13,4 22 12 - - W 1019,0 10 54
17.10.2018 16:00:00 15,7 14,5 18 10 - - W 1018,7 10 36
17.10.2018 15:00:00 15,7 14,7 18 10 - - W 1018,5 9 36
17.10.2018 14:00:00 15,8 14,5 18 10 - - W 1018,5 4,9 48
17.10.2018 13:00:00 15,6 13,9 14 8 - - WZW 1018,5 0,9 54
17.10.2018 12:00:00 15,3 13,6 14 8 - - ZW 1018,6 5 42
17.10.2018 11:00:00 15,5 13,4 22 12 - - ZW 1018,2 6 60
17.10.2018 10:00:00 15,6 13,2 22 12 - - ZW 1017,7 7 42
17.10.2018 09:00:00 15,6 13,3 18 10 - - ZZW 1017,4 9 0
17.10.2018 08:00:00 15,7 13,2 18 10 - - Z 1017,2 9 0
17.10.2018 07:00:00 15,8 13,5 14 8 - - Z 1016,9 9 0
17.10.2018 06:00:00 16,2 13,7 14 8 - - ZZW 1017,0 9 0
17.10.2018 05:00:00 16,4 13,5 22 12 - - Z 1016,6 10 0
17.10.2018 04:00:00 16,3 13,8 22 12 - - Z 1016,8 10 0
17.10.2018 03:00:00 16,5 13,8 22 12 - - Z 1017,2 10 0
17.10.2018 02:00:00 16,7 14,0 18 10 - - Z 1017,4 10 0
17.10.2018 01:00:00 16,9 14,2 18 10 - - Z 1017,8 10 0
17.10.2018 00:00:00 17,0 14,4 18 10 - - Z 1017,9 10 0
16.10.2018 23:00:00 17,4 14,6 22 12 - - Z 1018,1 10 0
16.10.2018 22:00:00 16,7 15,0 22 12 - - ZZO 1018,1 7 0
16.10.2018 21:00:00 16,5 15,2 22 12 - - ZZO 1018,2 5 0
16.10.2018 20:00:00 15,9 15,3 22 12 - - ZZO 1018,3 4,5 0
16.10.2018 19:00:00 15,3 15,1 14 8 - - ZO 1018,1 4,0 0
16.10.2018 18:00:00 14,1 14,0 7 4 - - ZZO 1018,0 0,3 0
16.10.2018 17:00:00 14,0 13,8 11 6 - - ZZW 1017,9 0,1 0
16.10.2018 16:00:00 13,9 13,6 14 8 - - ZZW 1017,9 0,1 0
16.10.2018 15:00:00 14,5 14,3 18 10 - - ZW 1018,1 1,5 0
16.10.2018 14:00:00 14,7 14,1 22 12 - - ZZW 1017,9 1,3 0
16.10.2018 13:00:00 15,4 14,7 14 8 - - WZW 1017,9 5 0
16.10.2018 12:00:00 15,8 14,9 11 6 - - W 1017,8 4,9 6
16.10.2018 11:00:00 15,8 14,9 14 8 - - WZW 1017,6 6 0
16.10.2018 10:00:00 15,7 14,9 14 8 - - WZW 1017,3 4,2 0
16.10.2018 09:00:00 15,8 14,9 14 8 - - ZW 1016,7 4,2 0
16.10.2018 08:00:00 15,8 14,8 18 10 - - ZW 1016,3 4,0 0
16.10.2018 07:00:00 15,8 14,6 18 10 - - ZW 1015,7 4,6 0
16.10.2018 06:00:00 15,9 14,3 14 8 - - ZW 1015,2 5 0
16.10.2018 05:00:00 15,6 14,3 11 6 - - ZW 1015,2 5 0
16.10.2018 04:00:00 15,7 14,3 4 2 - - ZZW 1015,2 5 0
16.10.2018 03:00:00 15,8 14,7 7 4 - - Z 1015,3 4,5 0
16.10.2018 02:00:00 15,7 14,7 7 4 - - ZZO 1015,0 4,0 0
16.10.2018 01:00:00 15,3 14,6 11 6 - - OZO 1014,6 3,3 0
16.10.2018 00:00:00 15,3 14,6 11 6 - - O 1014,7 3,1 0
15.10.2018 23:00:00 15,2 14,4 11 6 - - NO 1014,6 3,4 0
15.10.2018 22:00:00 15,3 14,4 11 6 - - NNO 1014,4 3,3 0
15.10.2018 21:00:00 15,5 14,4 11 6 - - N 1014,0 4,6 0
15.10.2018 20:00:00 16,2 14,4 7 4 - - N 1013,6 7 0
15.10.2018 19:00:00 16,1 14,2 4 2 - - NNO 1013,4 8 12
15.10.2018 18:00:00 16,4 13,2 7 4 - - O 1012,5 8 60
15.10.2018 17:00:00 18,0 13,4 4 2 - - ZZO 1012,2 10 60
15.10.2018 16:00:00 16,8 13,8 7 4 - - Z 1011,8 10 60
15.10.2018 15:00:00 16,4 13,4 7 4 - - Z 1011,9 9 60
15.10.2018 14:00:00 16,3 13,5 11 6 - - Z 1011,8 0,4 60
15.10.2018 13:00:00 15,6 12,9 18 10 - - Z 1011,8 0,6 60
15.10.2018 12:00:00 15,6 12,6 7 4 - - Z 1011,9 5 60
15.10.2018 11:00:00 15,5 12,5 11 6 - - Z 1011,7 10 60
15.10.2018 10:00:00 15,6 12,7 11 6 - - Z 1011,5 10 60
15.10.2018 09:00:00 15,6 13,0 14 8 - - ZZO 1010,9 10 30
15.10.2018 08:00:00 15,7 13,2 14 8 - - Z 1010,6 10 0
15.10.2018 07:00:00 15,7 13,1 14 8 - - ZZO 1010,2 10 0
15.10.2018 06:00:00 15,8 13,3 14 8 - - ZZO 1009,9 10 0
15.10.2018 05:00:00 16,0 13,6 11 6 - - Z 1009,8 10 0
15.10.2018 04:00:00 16,1 13,8 7 4 - - ZW 1009,9 10 0
15.10.2018 03:00:00 16,6 13,3 14 8 - - Z 1009,6 10 0
15.10.2018 02:00:00 16,7 13,5 14 8 - - Z 1009,6 10 0
15.10.2018 01:00:00 17,3 13,4 18 10 - - Z 1009,4 10 0
15.10.2018 00:00:00 17,6 13,3 18 10 - - ZZW 1009,4 10 0
14.10.2018 23:00:00 17,8 13,4 14 8 - - ZZW 1009,2 10 0
14.10.2018 22:00:00 17,3 13,5 18 10 - - Z 1008,9 10 0
14.10.2018 21:00:00 18,1 13,6 29 16 - - ZZO 1008,5 10 0
14.10.2018 20:00:00 17,9 13,8 25 14 - - ZZO 1008,2 10 0
14.10.2018 19:00:00 17,0 14,2 18 10 - - ZO 1007,8 10 18
14.10.2018 18:00:00 18,2 13,7 18 10 - - Z 1007,4 10 42
14.10.2018 17:00:00 18,0 14,0 25 14 - - ZZO 1007,2 10 60
14.10.2018 16:00:00 17,3 13,8 29 16 - - ZZO 1007,1 10 60
14.10.2018 15:00:00 16,8 13,7 29 16 - - ZO 1007,4 10 60
14.10.2018 14:00:00 16,2 13,5 25 14 - - ZO 1008,0 1,2 60
14.10.2018 13:00:00 15,9 13,0 29 16 - - ZO 1008,7 0,3 60
14.10.2018 12:00:00 15,9 12,4 29 16 - - ZZO 1009,3 0,5 60
14.10.2018 11:00:00 15,6 11,7 29 16 - - ZZO 1010,0 10 60
14.10.2018 10:00:00 15,8 12,2 29 16 - - ZZO 1010,4 10 60
14.10.2018 09:00:00 15,7 12,5 29 16 - - ZZO 1010,4 10 36
14.10.2018 08:00:00 16,1 12,4 29 16 - - ZZO 1010,4 10 0
14.10.2018 07:00:00 16,2 12,6 29 16 - - ZZO 1010,7 10 0
14.10.2018 06:00:00 16,5 12,8 32 18 - - ZZO 1010,9 10 0
14.10.2018 05:00:00 17,0 12,8 32 18 - - ZZO 1011,3 10 0
14.10.2018 04:00:00 17,2 12,9 32 18 - - ZZO 1012,0 10 0
14.10.2018 03:00:00 17,3 12,9 32 18 - - ZZO 1012,4 10 0
14.10.2018 02:00:00 17,1 13,1 32 18 - - ZZO 1012,9 10 0
14.10.2018 01:00:00 17,3 13,3 29 16 - - ZZO 1013,4 10 0
14.10.2018 00:00:00 17,8 13,5 32 18 - - ZZO 1013,8 10 0
13.10.2018 23:00:00 18,1 13,6 32 18 - - ZZO 1013,9 10 0
13.10.2018 22:00:00 18,4 14,0 32 18 - - ZZO 1014,3 10 0
13.10.2018 21:00:00 18,3 14,3 32 18 - - ZO 1014,4 10 0
13.10.2018 20:00:00 18,8 14,6 32 18 - - ZO 1015,1 10 0
13.10.2018 19:00:00 18,2 14,7 29 16 - - ZO 1015,2 10 24
13.10.2018 18:00:00 18,4 14,8 29 16 - - ZO 1015,3 10 48
13.10.2018 17:00:00 18,3 14,7 25 14 - - ZO 1015,8 10 60
13.10.2018 16:00:00 17,7 15,2 22 12 - - ZO 1016,5 10 60
13.10.2018 15:00:00 17,6 15,0 22 12 - - ZZO 1017,1 10 60
13.10.2018 14:00:00 17,9 15,0 25 14 - - Z 1017,7 1,2 60
13.10.2018 13:00:00 17,3 14,6 25 14 - - Z 1018,2 1,7 60
13.10.2018 12:00:00 16,9 14,2 29 16 - - Z 1018,3 6 60
13.10.2018 11:00:00 16,5 13,8 29 16 - - Z 1018,6 0,7 60

tt = temperatuur
td = dauwpunt
ff = windsnelheid
fx = windstoten
dd = windrichting
ppp = luchtdruk
vv = zicht
sd = Zonneschijnduur

Weerstations in de omgeving